Location: Caixon
(43.4106°N, 0.0273°E)
Time: 14:02:51
(UTC+00:00)

Cosmos 1674 Rocket - Pass Details

Date: 16 October 2021
Orbit: 603 x 629 km, 82.5° (Epoch: 28 November)

Event Time Altitude Azimuth Distance (km) Brightness Sun altitude
Rises 04:27:23 0° 175° (S) 2,870 7.0 -20.3°
Reaches altitude 10° 04:29:38 10° 171° (S) 1,965 6.2 -19.9°
Maximum altitude 04:33:52 54° 94° (E) 743 4.3 -19.1°
Drops below altitude 10° 04:38:07 10° 17° (NNE) 1,967 6.4 -18.4°
Sets 04:40:22 0° 13° (NNE) 2,873 7.2 -18.0°
